Regional Weather Roundup
Issued by NWS

Home | Current Version | Previous Version | Graphics & Text | Print | Product List | Glossary Off
Versions: 1 2 3 4 5 6 7 8 9 10 11 12 13 14 15 16 17 18 19 20 21 22 23 24 25 26 27 28 29 30 31 32 33 34 35 36 37 38 39 40 41 42 43 44 45 46 47 48 49 50

000
ASUS43 KLOT 251610
RWRIL

ILLINOIS REGIONAL WEATHER ROUNDUP
NATIONAL WEATHER SERVICE CHICAGO/ROMEOVILLE IL
1100 AM CDT FRI JUL 25 2014

NOTE: "FAIR" INDICATES FEW OR NO CLOUDS BELOW 12,000 FEET WITH NO
SIGNIFICANT WEATHER AND/OR OBSTRUCTIONS TO VISIBILITY.

* THESE STATIONS ARE NOT UNDER NWS QUALITY CONTROL. THEY ALSO MAY NOT
  REPORT WEATHER SUCH AS PRECIPITATION OR FOG.

ILZ001-002-007-009-015-016-024-251700-
NORTHWEST ILLINOIS

CITY           SKY/WX    TMP DP  RH WIND       PRES   REMARKS
MOLINE         LGT RAIN  63  59  87 W10       30.08R
STERLING*      CLOUDY    64  59  82 W6        30.04R
SAVANNA*       RAIN      64  59  83 SW10G16   30.04R
$$

ILZ003-004-008-010-011-017-018-251700-
NORTH CENTRAL ILLINOIS

CITY           SKY/WX    TMP DP  RH WIND       PRES   REMARKS
ROCKFORD       CLOUDY    68  58  70 SW18      30.02F
FREEPORT*      CLOUDY    63  57  83 SW12G17   30.04R
ROCHELLE*      CLOUDY    65  58  79 S8        30.02F
DE KALB*       LGT RAIN  62  56  83 S8        30.04F
PERU*          CLOUDY    64  59  82 SW8       30.02S
$$

ILZ005-006-012>014-019>023-251700-
NORTHEAST ILLINOIS

CITY           SKY/WX    TMP DP  RH WIND       PRES   REMARKS
CHICAGO-OHARE  CLOUDY    70  54  56 S13       30.01F
CHICAGO-MIDWAY CLOUDY    72  57  59 S12       30.01F
AURORA         CLOUDY    66  58  75 S5        30.04R
LANSING*       PTSUNNY   71  56  59 S10       30.03F
JOLIET*        CLOUDY    67  54  61 S10       30.04R
WAUKEGAN       CLOUDY    71  56  58 S12       30.00F
DUPAGE AIRPORT CLOUDY    68  57  68 SW9       30.03R
KANKAKEE*      CLOUDY    70  59  68 S9        30.06R
WHEELING       CLOUDY    73  55  53 S14       30.01F
MORRIS*        LGT RAIN  67  59  75 S6        30.04R
ROMEOVILLE*    LGT RAIN  68  56  63 SW9       30.03S
$$

LMZ740>746-251700-
SOUTHERN LAKE MICHIGAN

STATION/POSITION SKY/WX   TEMP    WIND        PRES    VSBY  WAVE
                          AIR SEA DIR/SP/G                  HT/PER
                          (F)     (DEG/KT/KT) (MB)    (MI)  (FT/S)
SOUTHERN BUOY              63 61  180/ 10/ 12 1016.4F         1
WAUKEGAN HARBOR            69     180/  8/  9   N/A
HARRISON CRIB              68     190/ 12/ 13   N/A
CALUMET HARBOR             71     170/ 10/ 11 1015.3F
MICHIGAN CITY              67     150/  7/  9   N/A
MICHIGAN CITY 6N           68 68  180/  8/ 10   N/A           1/ 2
ST. JOSEPH                 65 63  170/  4/  6   N/A           2/ 3
$$

ILZ025>027-034>036-040-047-049-050-058-095>099-251700-
WEST-CENTRAL ILLINOIS

CITY           SKY/WX    TMP DP  RH WIND       PRES   REMARKS
QUINCY         LGT RAIN  62  59  90 SE7       30.01F FOG
GALESBURG*     RAIN      61  60  96 CALM      30.07R
MACOMB*        RAIN      60  60 100 S10       30.04F
JACKSONVILLE*  CLOUDY    64  62  93 SE8       30.03F
PITTSFIELD*    CLOUDY    62  59  91 SW7       30.06S
$$

ILZ028>032-037-038-041>044-048-051>054-059>061-251700-
CENTRAL ILLINOIS

CITY           SKY/WX    TMP DP  RH WIND       PRES   REMARKS
PONTIAC        CLOUDY    66  61  82 S5        30.02F
DECATUR        LGT RAIN  66  60  81 S7        30.07F
PEORIA         LGT RAIN  65  59  81 SW8       30.05R
LACON*         CLOUDY    65  59  82 SW5       30.02R
LINCOLN*       RAIN      63  60  91 S9        30.01F
SPRINGFIELD    RAIN      64  61  90 S9        30.03F
TAYLORVILLE    LGT RAIN  64  61  88 S3        30.07F
$$

ILZ033-039-045-046-055>057-062-063-251700-
EAST-CENTRAL ILLINOIS

CITY           SKY/WX    TMP DP  RH WIND       PRES   REMARKS
CHAMPAIGN      CLOUDY    68  60  75 S9        30.06F
DANVILLE*      CLOUDY    68  57  68 S10       30.05F
RANTOUL*       CLOUDY    69  58  66 S12       30.05F
MATTOON        CLOUDY    67  59  75 S6        30.07F
PARIS*         CLOUDY    70  60  70 S5        30.10F
$$

ILZ079-100>102-251700-
SOUTHWEST ILLINOIS

CITY           SKY/WX    TMP DP  RH WIND       PRES   REMARKS
ALTON          PTSUNNY   72  64  78 SE7       30.06F
CAHOKIA*       CLOUDY    75  61  61 SE8       30.05F
SPARTA*        PTSUNNY   72  61  68 S6        30.08F
$$

ILZ064>066-069>071-074>076-080>082-084>086-088>090-092>094-251700-
SOUTH-CENTRAL ILLINOIS

CITY           SKY/WX    TMP DP  RH WIND       PRES   REMARKS
CARBONDALE     MOSUNNY   78  57  48 S9        30.07F
CAIRO*         SUNNY     78  61  54 S5        30.08S HX  80
EFFINGHAM*     CLOUDY    71  56  60 SE5       30.08F
MARION         PTSUNNY   77  55  47 SE9       30.08F
MT. VERNON     MOSUNNY   77  61  57 S5        30.09F
CENTRALIA*     MOSUNNY   82  58  45 SE6       30.07F HX  82
SALEM*         PTSUNNY   76  61  59 S5        30.09F
METROPOLIS*    SUNNY     77  53  43 CALM      30.08S
$$

ILZ067-068-072-073-078-083-087-091-251700-
SOUTHEAST ILLINOIS

CITY           SKY/WX    TMP DP  RH WIND       PRES   REMARKS
LAWRENCEVILLE  CLOUDY    73  59  61 CALM      30.12R
FLORA*         CLOUDY    73  59  63 S5        30.10F
FAIRFIELD*     PTSUNNY   75  63  64 S3        30.09F
HARRISBURG*    PTSUNNY   75  60  59 S3        30.10F
ROBINSON*      CLOUDY    74  62  65 S3        30.12F
CARMI*         PTSUNNY   79  61  53 SE3       30.09F HX  80
$$

ABBREVIATIONS USED IN REMARKS
   TC - TEMPERATURE IN CELSIUS
  WCI - WIND CHILL INDEX
   HX - HEAT INDEX
  VSB - VISIBILITY
$$



USA.gov is the U.S. government's official web portal to all federal, state and local government web resources and services.